DELTA 1 DEB, 12581

Orbit data source: Space-Track

DELTA 1 DEB, 12581 is space debris in LEO originally from a launch on Thu, 29 Jul 1976 UTC launched from the Air Force Western Test Range (AFWTR). Debris objects in space refer to the collection of defunct objects orbiting the Earth. Examples of debris include non-operational satellites, rocket bodies, and fragments generated from explosions, collisions, or faulty payload assembly.

Loading next visibility...
Identifier
12581, 1976-077DZ
Orbit
LEO
Country
Flag of USUS
Related business
Manufacturer
Unknown
Mission
Spacecraft
Bus & Motor
Unknown
Mass
Unknown
Launch date (UTC)
1976-07-29 (49 years ago)
Launch vehicle
Unknown
Launch site
Air Force Western Test Range (AFWTR)
Object type
Payload
Rocket body
Debris
Shape & HBR
Unknown shape, 0.1 m
Radar Cross Section
Small (<0.1 m²)

Expand to show TLE details & history
Last TLE update: 2 days ago

TLE from 2 days ago
0 DELTA 1 DEB
1 12581U 76077DZ  25287.45572123 -.00000026  00000-0  17899-3 0  9993
2 12581 102.4798 183.6138 0380740 186.0426 355.7294 11.70235570 36644
Epoch: 2025-10-14T10:56Z
TLE epoch observation values (Epoch: 2025-10-14T10:56:14.314Z)
Latitude
-1.50777°
Longitude
175.97812°
Altitude
1,508.459 km
Speed
7.244 km/s
True Right ascension
00h 13m 07s
True Declination
-1° 29' 59"
Sunlit
Object was in full shadow at epoch
Visualization orbit readout
Latitude
Unknown
Longitude
Unknown
Altitude
Unknown
Speed
Unknown
Apparent Right ascension
Unknown
Apparent Declination
Unknown
Sunlit
N/A
Visualization observer readout
Local Sidereal Time
09:08:39
Azimuth
Unknown
Elevation
Unknown
Doppler factor
Unknown
Orbital elements
Apogee altitude
2,126.56 km
Perigee altitude
1,502.697 km
Semi-major axis
8,192.766 km
Eccentricity
0.03807
Inclination
102.4798°
RAAN
183.6138°
Arg. of periapsis
186.0426°
True anomaly
355.38835°
Mean anomaly
355.7294°
Eccentric anomaly
355.56054°
Mean motion
2.92683 °/min
Orbital period
123 mins
BSTAR
0.00017899
Loading maneuver chart data...
Computing Atmospheric mass density...
Loading historical data...
Loading historical data...
Loading historical data...
Loading historical data...
Loading historical data...
Loading historical data...
Loading historical data...

Documentation

Showing up to 5 results
|